This is the latest recevied weather packets stored in our database for station/object WX7FGZ-6. If no packets are shown the sender has not sent any weather packets the latest 1 day(s).
| Time | Temp. | Humidity | Pressure | Rain* | Wind** | Luminosity | Snow |
|---|---|---|---|---|---|---|---|
| 1778028047 | -4.44° C | 91% | 1012 hPa | 0 mm | 1.34 m/s, 175° | - | - |
| 1778027879 | -4.44° C | 91% | 1012 hPa | 0 mm | 1.34 m/s, 175° | - | - |
| 1778027579 | -4.44° C | 91% | 1012 hPa | 0 mm | 1.34 m/s, 171° | - | - |
| 1778027279 | -4.44° C | 91% | 1011.8 hPa | 0 mm | 1.79 m/s, 178° | - | - |
| 1778026979 | -4.44° C | 91% | 1011.7 hPa | 0 mm | 2.24 m/s, 190° | - | - |
| 1778026679 | -4.44° C | 91% | 1012.2 hPa | 0 mm | 1.79 m/s, 176° | - | - |
| 1778026379 | -4.44° C | 91% | 1012.1 hPa | 0 mm | 2.24 m/s, 179° | - | - |
| 1778026078 | -4.44° C | 91% | 1012 hPa | 0 mm | 0.89 m/s, 187° | - | - |
| 1778025621 | -4.44° C | 91% | 1011.9 hPa | 0 mm | 1.34 m/s, 189° | - | - |
| 1778025483 | -4.44° C | 91% | 1011.8 hPa | 0 mm | 2.24 m/s, 173° | - | - |
| 1778025320 | -4.44° C | 91% | 1011.8 hPa | 0 mm | 2.24 m/s, 173° | - | - |
| 1778025020 | -4.44° C | 91% | 1011.7 hPa | 0 mm | 1.79 m/s, 172° | - | - |
| 1778024720 | -4.44° C | 91% | 1011.7 hPa | 0 mm | 1.34 m/s, 198° | - | - |
| 1778024421 | -4.44° C | 91% | 1011.5 hPa | 0 mm | 2.68 m/s, 170° | - | - |
| 1778024121 | -4.44° C | 91% | 1011.8 hPa | 0 mm | 1.34 m/s, 181° | - | - |
| 1778023651 | -4.44° C | 91% | 1011.6 hPa | 0 mm | 1.79 m/s, 167° | - | - |
| 1778023352 | -4.44° C | 91% | 1011.4 hPa | 0 mm | 3.13 m/s, 180° | - | - |
| 1778023052 | -4.44° C | 91% | 1011.4 hPa | 0 mm | 2.68 m/s, 168° | - | - |
| 1778022751 | -4.44° C | 91% | 1011.3 hPa | 0 mm | 2.24 m/s, 174° | - | - |
| 1778022451 | -3.89° C | 91% | 1011.4 hPa | 0 mm | 2.24 m/s, 174° | - | - |
| 1778022293 | -3.89° C | 91% | 1011.5 hPa | 0 mm | 2.24 m/s, 176° | - | - |
| 1778022151 | -3.89° C | 91% | 1011.5 hPa | 0 mm | 2.24 m/s, 176° | - | - |
| 1778021852 | -3.89° C | 91% | 1011.4 hPa | 0 mm | 3.13 m/s, 176° | - | - |
| 1778021551 | -3.89° C | 91% | 1011.2 hPa | 0 mm | 2.24 m/s, 177° | - | - |
| 1778021251 | -3.89° C | 91% | 1011.1 hPa | 0 mm | 2.24 m/s, 181° | - | - |
* Rain latest hour (hover to see other rain measurements)
** Current wind speed in m/s (hover to see current wind gust speed)